Date String (YYYY-MM-DD hh:mm:ss) UTC,Instrument flags,absolute air pressure of the measurement (hPa),sample flow rate (lpm),inlet stack bypass flow (lpm),air temperature of the measurement (°C),ambient temperature measured by the external sensor (°C),aerosol sample conditioner tube jacket temperature (°C),OPC LED temperature (°C),internal box temperature (°C),relative humidity of the measurement (%),span deviation,mass concentration of particles derived from Lorenz-Mie calculation of OPC scattering (μg/m³),mass concentration of particles derived from Lorenz-Mie calculation of OPC scattering (μg/m³),mass concentration of particles derived from Lorenz-Mie calculation of OPC scattering (μg/m³)
DateTimeUTC,F1_M11,P_M11,Q1_M11,Q2_M11,T1_M11,T2_M11,T3_M11,T4_M11,T5_M11,U1_M11,ZSPAN_M11,X2_M11,X0_M11,X1_M11
2024-05-11 11:00:00,SystemResetWarning,0831.3,5.00,000.00,024.7,024.0,000.0,033.1,026.5,017.6,0000.0,0002.48,0003.85,0002.17
2024-05-11 11:01:00,SystemResetWarning,0831.2,5.00,000.00,024.7,024.0,000.0,033.1,026.4,017.6,0000.0,0002.49,0003.99,0002.15
2024-05-11 11:02:00,SystemResetWarning,0831.2,5.00,000.00,024.7,024.0,000.0,033.1,026.5,017.5,0000.0,0002.54,0004.14,0002.18
2024-05-11 11:03:00,SystemResetWarning,0831.2,5.00,000.00,024.7,024.0,000.0,033.1,026.4,017.4,0000.0,0002.55,0004.23,0002.18
2024-05-11 11:04:00,SystemResetWarning,0831.2,5.00,000.00,024.7,024.0,000.0,033.1,026.4,017.4,0000.0,0002.52,0003.98,0002.16
2024-05-11 11:05:00,SystemResetWarning,0831.2,5.00,000.00,024.7,024.0,000.0,033.0,026.4,017.4,0000.0,0002.52,0003.83,0002.16
2024-05-11 11:06:00,SystemResetWarning,0831.2,5.01,000.00,024.7,024.0,000.0,033.0,026.4,017.4,0000.0,0002.50,0003.78,0002.14
2024-05-11 11:07:00,SystemResetWarning,0831.2,5.01,000.00,024.7,024.0,000.0,033.0,026.4,017.5,0000.0,0002.44,0003.69,0002.11
2024-05-11 11:08:00,SystemResetWarning,0831.1,5.01,000.00,024.7,024.0,000.0,033.0,026.4,017.5,0000.0,0002.37,0003.62,0002.08
2024-05-11 11:09:00,SystemResetWarning,0831.1,5.00,000.00,024.7,023.9,000.0,033.0,026.4,017.5,0000.0,0002.31,0004.78,0002.05
2024-05-11 11:10:00,SystemResetWarning,0831.1,5.00,000.00,024.7,023.9,000.0,033.0,026.4,017.6,0000.0,0002.28,0004.56,0002.03
2024-05-11 11:11:00,SystemResetWarning,0831.1,5.00,000.00,024.6,023.9,000.0,033.0,026.4,017.5,0000.0,0002.27,0004.56,0002.01
2024-05-11 11:12:00,SystemResetWarning,0831.1,5.00,000.00,024.6,023.9,000.0,033.0,026.4,017.5,0000.0,0002.25,0004.48,0001.99
2024-05-11 11:13:00,SystemResetWarning,0831.1,5.00,000.00,024.6,023.9,000.0,033.0,026.4,017.6,0000.0,0002.20,0004.34,0001.96
2024-05-11 11:14:00,SystemResetWarning,0831.1,4.99,000.00,024.6,023.9,000.0,033.0,026.4,017.7,0000.0,0002.15,0004.14,0001.94
2024-05-11 11:15:00,SystemResetWarning,0831.1,5.00,000.00,024.6,023.9,000.0,033.0,026.4,017.8,0000.0,0002.14,0004.24,0001.94
2024-05-11 11:16:00,SystemResetWarning,0831.1,5.01,000.00,024.6,023.9,000.0,033.0,026.3,017.8,0000.0,0002.12,0004.18,0001.93
2024-05-11 11:17:00,SystemResetWarning,0831.1,5.00,000.00,024.6,023.9,000.0,032.9,026.3,017.8,0000.0,0002.15,0004.30,0001.95
2024-05-11 11:18:00,SystemResetWarning,0831.1,5.01,000.00,024.6,023.8,000.0,032.9,026.3,017.8,0000.0,0002.23,0004.62,0001.95
2024-05-11 11:19:00,SystemResetWarning,0831.1,5.01,000.00,024.6,023.8,000.0,032.9,026.3,017.7,0000.0,0002.28,0004.70,0001.95
2024-05-11 11:20:00,SystemResetWarning,0831.1,5.01,000.00,024.6,023.8,000.0,032.9,026.3,017.7,0000.0,0002.33,0003.63,0001.96
2024-05-11 11:21:00,SystemResetWarning,0831.1,5.00,000.00,024.6,023.8,000.0,032.9,026.3,017.7,0000.0,0002.33,0003.63,0001.96
2024-05-11 11:22:00,SystemResetWarning,0831.1,4.99,000.00,024.6,023.8,000.0,032.9,026.3,017.8,0000.0,0002.34,0003.67,0001.95
2024-05-11 11:23:00,SystemResetWarning,0831.0,5.00,000.00,024.5,023.8,000.0,032.9,026.3,017.7,0000.0,0002.33,0003.64,0001.94
2024-05-11 11:24:00,SystemResetWarning,0831.0,4.99,000.00,024.5,023.8,000.0,032.9,026.3,017.7,0000.0,0002.32,0003.63,0001.93
2024-05-11 11:25:00,SystemResetWarning,0831.0,5.00,000.00,024.5,023.8,000.0,032.9,026.3,017.6,0000.0,0002.33,0003.66,0001.93
2024-05-11 11:26:00,SystemResetWarning,0830.9,5.02,000.00,024.5,023.8,000.0,032.9,026.3,017.7,0000.0,0002.34,0003.57,0001.94
2024-05-11 11:27:00,SystemResetWarning,0830.9,4.99,000.00,024.5,023.8,000.0,032.9,026.3,017.7,0000.0,0002.33,0003.57,0001.93
2024-05-11 11:28:00,SystemResetWarning,0830.9,4.99,000.00,024.5,023.8,000.0,032.8,026.2,017.6,0000.0,0002.32,0003.52,0001.92
2024-05-11 11:29:00,SystemResetWarning,0830.9,5.01,000.00,024.5,023.8,000.0,032.8,026.2,017.6,0000.0,0002.25,0003.25,0001.89
2024-05-11 11:30:00,SystemResetWarning,0830.9,5.01,000.00,024.5,023.8,000.0,032.8,026.2,017.6,0000.0,0002.20,0003.19,0001.87
2024-05-11 11:31:00,SystemResetWarning,0830.9,4.99,000.00,024.5,023.8,000.0,032.8,026.2,017.7,0000.0,0002.17,0003.02,0001.86
2024-05-11 11:32:00,SystemResetWarning,0830.9,4.99,000.00,024.5,023.8,000.0,032.8,026.2,017.7,0000.0,0002.18,0003.11,0001.86
2024-05-11 11:33:00,SystemResetWarning,0830.9,5.00,000.00,024.5,023.7,000.0,032.8,026.2,017.8,0000.0,0002.16,0003.07,0001.86
2024-05-11 11:34:00,SystemResetWarning,0830.9,5.01,000.00,024.4,023.7,000.0,032.8,026.2,017.8,0000.0,0002.14,0003.00,0001.86
2024-05-11 11:35:00,SystemResetWarning,0830.9,4.99,000.00,024.4,023.7,000.0,032.8,026.1,017.8,0000.0,0002.15,0002.99,0001.87
2024-05-11 11:36:00,SystemResetWarning,0830.9,5.00,000.00,024.4,023.7,000.0,032.8,026.2,017.8,0000.0,0002.15,0002.98,0001.88
2024-05-11 11:37:00,SystemResetWarning,0830.9,5.00,000.00,024.4,023.7,000.0,032.8,026.1,017.8,0000.0,0002.17,0003.11,0001.89
2024-05-11 11:38:00,SystemResetWarning,0830.9,4.99,000.00,024.4,023.7,000.0,032.7,026.1,017.7,0000.0,0002.19,0003.16,0001.89
2024-05-11 11:39:00,SystemResetWarning,0830.9,5.00,000.00,024.4,023.7,000.0,032.7,026.1,017.8,0000.0,0002.20,0003.18,0001.90
2024-05-11 11:40:00,SystemResetWarning,0830.9,5.00,000.00,024.4,023.7,000.0,032.7,026.1,017.9,0000.0,0002.25,0003.28,0001.93
2024-05-11 11:41:00,SystemResetWarning,0830.9,5.00,000.00,024.4,023.7,000.0,032.7,026.1,017.9,0000.0,0002.28,0003.85,0001.96
2024-05-11 11:42:00,SystemResetWarning,0830.9,5.00,000.00,024.4,023.7,000.0,032.7,026.1,018.0,0000.0,0002.29,0004.12,0001.97
2024-05-11 11:43:00,SystemResetWarning,0830.9,5.01,000.00,024.4,023.7,000.0,032.7,026.1,018.1,0000.0,0002.30,0004.09,0002.00
2024-05-11 11:44:00,SystemResetWarning,0830.9,4.99,000.00,024.4,023.7,000.0,032.7,026.1,018.1,0000.0,0002.34,0004.16,0002.04
2024-05-11 11:45:00,SystemResetWarning,0830.9,5.00,000.00,024.4,023.7,000.0,032.7,026.1,018.2,0000.0,0002.41,0004.25,0002.07
2024-05-11 11:46:00,SystemResetWarning,0830.9,5.00,000.00,024.4,023.7,000.0,032.7,026.1,018.1,0000.0,0002.44,0004.34,0002.09
2024-05-11 11:47:00,SystemResetWarning,0830.9,5.00,000.00,024.4,023.7,000.0,032.7,026.1,018.1,0000.0,0002.47,0004.40,0002.11
2024-05-11 11:48:00,SystemResetWarning,0830.9,5.00,000.00,024.4,023.7,000.0,032.7,026.1,018.0,0000.0,0002.48,0004.28,0002.12
2024-05-11 11:49:00,SystemResetWarning,0830.9,5.00,000.00,024.4,023.7,000.0,032.7,026.1,018.0,0000.0,0002.48,0004.22,0002.14
2024-05-11 11:50:00,SystemResetWarning,0830.9,5.00,000.00,024.4,023.7,000.0,032.7,026.1,018.0,0000.0,0002.48,0004.27,0002.16
2024-05-11 11:51:00,SystemResetWarning,0830.9,5.01,000.00,024.4,023.7,000.0,032.7,026.1,017.9,0000.0,0002.45,0004.30,0002.17
2024-05-11 11:52:00,SystemResetWarning,0830.9,5.00,000.00,024.4,023.7,000.0,032.7,026.1,017.8,0000.0,0002.43,0003.85,0002.17
2024-05-11 11:53:00,SystemResetWarning,0830.9,5.00,000.00,024.4,023.7,000.0,032.7,026.1,017.9,0000.0,0002.42,0003.38,0002.16
2024-05-11 11:54:00,SystemResetWarning,0830.9,4.99,000.00,024.3,023.7,000.0,032.7,026.1,018.0,0000.0,0002.42,0003.38,0002.14
2024-05-11 11:55:00,SystemResetWarning,0830.9,4.99,000.00,024.3,023.7,000.0,032.7,026.1,017.9,0000.0,0002.40,0003.34,0002.12
2024-05-11 11:56:00,SystemResetWarning,0830.9,5.01,000.00,024.3,023.7,000.0,032.7,026.1,017.9,0000.0,0002.35,0003.25,0002.09
2024-05-11 11:57:00,SystemResetWarning,0830.9,5.00,000.00,024.3,023.7,000.0,032.7,026.1,017.9,0000.0,0002.36,0003.26,0002.08
2024-05-11 11:58:00,SystemResetWarning,0830.9,5.01,000.00,024.3,023.7,000.0,032.7,026.1,017.8,0000.0,0002.34,0003.26,0002.05
2024-05-11 11:59:00,SystemResetWarning,0830.9,5.00,000.00,024.3,023.7,000.0,032.6,026.1,017.8,0000.0,0002.34,0003.28,0002.05
